| time (UTC) | temp F | wind direction | speed MPH | gust MPH | rain 1hr in | rain 24hr in | rain mn in | humidity % | barometer mb |
| 20260903215936 | 67 | 283 | 3.0 | 8.0 | 0.00 | 0.00 | 0.00 | 82 | 996.1 |
| 20260903215430 | 67 | 238 | 4.0 | 14.0 | 0.00 | 0.00 | 0.00 | 82 | 996.2 |
| 20260903214924 | 67 | 264 | 4.0 | 14.0 | 0.00 | 0.00 | 0.00 | 81 | 996.2 |
| 20260903213911 | 67 | 242 | 3.0 | 9.0 | 0.00 | 0.00 | 0.00 | 80 | 996.3 |
| 20260903213406 | 67 | 207 | 3.0 | 9.0 | 0.00 | 0.00 | 0.00 | 80 | 996.3 |
| 20260903212900 | 67 | 257 | 3.0 | 12.0 | 0.00 | 0.00 | 0.00 | 80 | 996.3 |
| 20260903211850 | 67 | 267 | 3.0 | 11.0 | 0.00 | 0.00 | 0.00 | 80 | 996.4 |
| 20260903211342 | 67 | 259 | 3.0 | 11.0 | 0.00 | 0.00 | 0.00 | 79 | 996.5 |
| 20260903210836 | 68 | 257 | 3.0 | 11.0 | 0.00 | 0.00 | 0.00 | 79 | 996.5 |
| 20260903210330 | 68 | 222 | 3.0 | 7.0 | 0.00 | 0.00 | 0.00 | 79 | 996.5 |
| 20260903205824 | 68 | 229 | 3.0 | 9.0 | 0.00 | 0.00 | 0.00 | 79 | 996.5 |
| 20260903205318 | 68 | 173 | 3.0 | 9.0 | 0.00 | 0.00 | 0.00 | 79 | 996.4 |
| 20260903204812 | 68 | 227 | 3.0 | 9.0 | 0.00 | 0.00 | 0.00 | 78 | 996.5 |
| 20260903204306 | 68 | 257 | 3.0 | 9.0 | 0.00 | 0.00 | 0.00 | 78 | 996.5 |
| 20260903202748 | 67 | 225 | 4.0 | 8.0 | 0.00 | 0.00 | 0.00 | 79 | 996.5 |
| 20260903202241 | 67 | 265 | 4.0 | 8.0 | 0.00 | 0.00 | 0.00 | 80 | 996.5 |
| 20260903201229 | 67 | 242 | 3.0 | 8.0 | 0.00 | 0.00 | 0.00 | 80 | 996.6 |
| 20260903200730 | 66 | 249 | 3.0 | 8.0 | 0.00 | 0.00 | 0.00 | 79 | 996.8 |
| 20260903200230 | 66 | 219 | 3.0 | 8.0 | 0.00 | 0.00 | 0.00 | 79 | 996.8 |
| 20260903195729 | 66 | 240 | 3.0 | 6.0 | 0.00 | 0.00 | 0.00 | 79 | 996.8 |
| 20260903194726 | 66 | 196 | 3.0 | 7.0 | 0.00 | 0.00 | 0.00 | 78 | 997.0 |
| 20260903194227 | 66 | 255 | 3.0 | 7.0 | 0.00 | 0.00 | 0.00 | 78 | 997.0 |
| 20260903193228 | 66 | 228 | 3.0 | 8.0 | 0.00 | 0.00 | 0.00 | 77 | 997.2 |
| 20260903192725 | 67 | 238 | 3.0 | 8.0 | 0.00 | 0.00 | 0.00 | 77 | 997.2 |
| 20260903192225 | 67 | 246 | 4.0 | 8.0 | 0.00 | 0.00 | 0.00 | 77 | 997.2 |
| 20260903191723 | 67 | 189 | 4.0 | 14.0 | 0.00 | 0.00 | 0.00 | 76 | 997.2 |
| 20260903191222 | 68 | 247 | 4.0 | 14.0 | 0.00 | 0.00 | 0.00 | 75 | 997.3 |
| 20260903190722 | 68 | 235 | 4.0 | 11.0 | 0.00 | 0.00 | 0.00 | 75 | 997.3 |
| 20260903190224 | 68 | 232 | 5.0 | 9.0 | 0.00 | 0.00 | 0.00 | 75 | 997.3 |
| 20260903185221 | 68 | 214 | 4.0 | 10.0 | 0.00 | 0.00 | 0.00 | 75 | 997.4 |
| 20260903184722 | 68 | 187 | 4.0 | 13.0 | 0.00 | 0.00 | 0.00 | 74 | 997.4 |
| 20260903184222 | 68 | 178 | 4.0 | 13.0 | 0.00 | 0.00 | 0.00 | 73 | 997.5 |
| 20260903183722 | 68 | 251 | 4.0 | 9.0 | 0.00 | 0.00 | 0.00 | 73 | 997.5 |
| 20260903183221 | 68 | 187 | 4.0 | 10.0 | 0.00 | 0.00 | 0.00 | 74 | 997.5 |
| 20260903182722 | 68 | 241 | 5.0 | 12.0 | 0.00 | 0.00 | 0.00 | 74 | 997.5 |
| 20260903182221 | 68 | 240 | 5.0 | 12.0 | 0.00 | 0.00 | 0.00 | 73 | 997.6 |
| 20260903181721 | 68 | 242 | 4.0 | 9.0 | 0.00 | 0.00 | 0.00 | 74 | 997.5 |
| 20260903181220 | 68 | 242 | 4.0 | 9.0 | 0.00 | 0.00 | 0.00 | 73 | 997.5 |
| 20260903180720 | 68 | 246 | 4.0 | 12.0 | 0.00 | 0.00 | 0.00 | 73 | 997.4 |
| 20260903180221 | 68 | 213 | 4.0 | 12.0 | 0.00 | 0.00 | 0.00 | 75 | 997.5 |
| 20260903175716 | 67 | 205 | 4.0 | 11.0 | 0.00 | 0.00 | 0.00 | 75 | 997.4 |
| 20260903175216 | 67 | 209 | 5.0 | 10.0 | 0.00 | 0.00 | 0.00 | 76 | 997.3 |
| 20260903174716 | 66 | 217 | 6.0 | 10.0 | 0.00 | 0.00 | 0.00 | 77 | 997.2 |
| 20260903174216 | 66 | 197 | 5.0 | 10.0 | 0.00 | 0.00 | 0.00 | 77 | 997.2 |
| 20260903173718 | 66 | 186 | 4.0 | 9.0 | 0.00 | 0.00 | 0.00 | 77 | 997.3 |
| 20260903173218 | 65 | 240 | 5.0 | 11.0 | 0.00 | 0.00 | 0.00 | 78 | 997.3 |
| 20260903172717 | 65 | 179 | 5.0 | 12.0 | 0.00 | 0.00 | 0.00 | 79 | 997.4 |
| 20260903172216 | 64 | 190 | 5.0 | 12.0 | 0.00 | 0.00 | 0.00 | 79 | 997.3 |
| 20260903171718 | 64 | 185 | 6.0 | 11.0 | 0.00 | 0.00 | 0.00 | 80 | 997.4 |
| 20260903171214 | 64 | 184 | 7.0 | 14.0 | 0.00 | 0.00 | 0.00 | 80 | 997.4 |
| 20260903165712 | 63 | 194 | 6.0 | 11.0 | 0.00 | 0.00 | 0.00 | 80 | 997.6 |
| 20260903165212 | 63 | 181 | 7.0 | 12.0 | 0.00 | 0.00 | 0.00 | 80 | 997.6 |
| 20260903164712 | 63 | 175 | 7.0 | 12.0 | 0.00 | 0.00 | 0.00 | 81 | 997.6 |
| 20260903164212 | 63 | 178 | 6.0 | 11.0 | 0.00 | 0.00 | 0.00 | 81 | 997.5 |
| 20260903163712 | 63 | 156 | 5.0 | 11.0 | 0.00 | 0.00 | 0.00 | 82 | 997.6 |
| 20260903163212 | 63 | 204 | 6.0 | 11.0 | 0.00 | 0.00 | 0.00 | 82 | 997.6 |
| 20260903162710 | 62 | 181 | 6.0 | 11.0 | 0.00 | 0.00 | 0.00 | 82 | 997.8 |
| 20260903162211 | 62 | 199 | 5.0 | 11.0 | 0.00 | 0.00 | 0.00 | 83 | 997.7 |
| 20260903161710 | 62 | 194 | 5.0 | 10.0 | 0.00 | 0.00 | 0.00 | 83 | 997.7 |
| 20260903160712 | 62 | 204 | 4.0 | 9.0 | 0.00 | 0.00 | 0.00 | 84 | 997.8 |
| 20260903160211 | 62 | 198 | 5.0 | 11.0 | 0.00 | 0.00 | 0.00 | 84 | 997.8 |
| 20260903155710 | 62 | 197 | 4.0 | 11.0 | 0.00 | 0.00 | 0.00 | 84 | 997.9 |
| 20260903155211 | 62 | 211 | 4.0 | 8.0 | 0.00 | 0.00 | 0.00 | 84 | 997.9 |
| 20260903154712 | 62 | 176 | 3.0 | 9.0 | 0.00 | 0.00 | 0.00 | 84 | 997.9 |
| 20260903154205 | 62 | 136 | 4.0 | 10.0 | 0.00 | 0.00 | 0.00 | 84 | 997.9 |
| 20260903153704 | 61 | 173 | 5.0 | 11.0 | 0.00 | 0.00 | 0.00 | 84 | 997.8 |
| 20260903153204 | 61 | 158 | 5.0 | 11.0 | 0.00 | 0.00 | 0.00 | 84 | 997.8 |
| 20260903152705 | 61 | 233 | 4.0 | 9.0 | 0.00 | 0.00 | 0.00 | 85 | 997.9 |
| 20260903152204 | 61 | 149 | 4.0 | 10.0 | 0.00 | 0.00 | 0.00 | 85 | 997.8 |
| 20260903151704 | 61 | 135 | 4.0 | 10.0 | 0.00 | 0.00 | 0.00 | 86 | 997.8 |
| 20260903150204 | 61 | 200 | 3.0 | 10.0 | 0.00 | 0.00 | 0.00 | 87 | 997.8 |
| 20260903145704 | 61 | 164 | 4.0 | 9.0 | 0.00 | 0.00 | 0.00 | 87 | 997.7 |
| 20260903145204 | 61 | 192 | 4.0 | 9.0 | 0.00 | 0.00 | 0.00 | 88 | 997.8 |
| 20260903144704 | 61 | 153 | 4.0 | 9.0 | 0.00 | 0.00 | 0.00 | 88 | 997.8 |
| 20260903143705 | 60 | 200 | 3.0 | 7.0 | 0.00 | 0.00 | 0.00 | 88 | 997.7 |
| 20260903143204 | 61 | 192 | 3.0 | 7.0 | 0.00 | 0.00 | 0.00 | 89 | 997.6 |
| 20260903142705 | 61 | 187 | 3.0 | 6.0 | 0.00 | 0.00 | 0.00 | 89 | 997.7 |
| 20260903141659 | 60 | 216 | 3.0 | 6.0 | 0.00 | 0.00 | 0.00 | 89 | 997.6 |
| 20260903141153 | 60 | 182 | 3.0 | 6.0 | 0.00 | 0.00 | 0.00 | 89 | 997.7 |
| 20260903140647 | 60 | 214 | 3.0 | 7.0 | 0.00 | 0.00 | 0.00 | 89 | 997.6 |
| 20260903140140 | 60 | 185 | 3.0 | 7.0 | 0.00 | 0.00 | 0.00 | 89 | 997.6 |
| 20260903135635 | 60 | 167 | 3.0 | 7.0 | 0.00 | 0.00 | 0.00 | 89 | 997.6 |
| 20260903135129 | 60 | 171 | 3.0 | 7.0 | 0.00 | 0.00 | 0.00 | 89 | 997.6 |
| 20260903134623 | 60 | 191 | 3.0 | 6.0 | 0.00 | 0.00 | 0.00 | 89 | 997.7 |
| 20260903134117 | 60 | 188 | 2.0 | 5.0 | 0.00 | 0.00 | 0.00 | 89 | 997.6 |
| 20260903133611 | 60 | 168 | 2.0 | 6.0 | 0.00 | 0.00 | 0.00 | 89 | 997.6 |
| 20260903133105 | 60 | 178 | 2.0 | 6.0 | 0.00 | 0.00 | 0.00 | 89 | 997.5 |
| 20260903132558 | 60 | 190 | 2.0 | 4.0 | 0.00 | 0.00 | 0.00 | 89 | 997.4 |
| 20260903132053 | 60 | 175 | 2.0 | 4.0 | 0.00 | 0.00 | 0.00 | 89 | 997.5 |
| 20260903131546 | 61 | 192 | 1.0 | 4.0 | 0.00 | 0.00 | 0.00 | 89 | 997.5 |
| 20260903130534 | 61 | 180 | 1.0 | 4.0 | 0.00 | 0.00 | 0.00 | 89 | 997.6 |
| 20260903130029 | 61 | 198 | 1.0 | 4.0 | 0.00 | 0.00 | 0.00 | 89 | 997.6 |
| 20260903125523 | 61 | 192 | 1.0 | 4.0 | 0.00 | 0.00 | 0.00 | 89 | 997.6 |
| 20260903124511 | 61 | 176 | 1.0 | 4.0 | 0.00 | 0.00 | 0.00 | 89 | 997.6 |
| 20260903124004 | 61 | 169 | 1.0 | 4.0 | 0.00 | 0.00 | 0.00 | 89 | 997.6 |
| 20260903123459 | 61 | 165 | 1.0 | 4.0 | 0.00 | 0.00 | 0.00 | 89 | 997.7 |
| 20260903122953 | 61 | 166 | 1.0 | 4.0 | 0.00 | 0.00 | 0.00 | 89 | 997.7 |
| 20260903122447 | 61 | 163 | 1.0 | 3.0 | 0.00 | 0.00 | 0.00 | 89 | 997.7 |
| 20260903121941 | 61 | 221 | 2.0 | 5.0 | 0.00 | 0.00 | 0.00 | 89 | 997.8 |
| 20260903120929 | 61 | 196 | 2.0 | 7.0 | 0.00 | 0.00 | 0.00 | 89 | 997.7 |
| 20260903115412 | 61 | 184 | 1.0 | 4.0 | 0.00 | 0.00 | 0.00 | 89 | 997.9 |
| 20260903114904 | 61 | 246 | 1.0 | 3.0 | 0.00 | 0.00 | 0.00 | 89 | 997.9 |
| 20260903114359 | 61 | 250 | 1.0 | 4.0 | 0.00 | 0.00 | 0.00 | 89 | 997.9 |
| 20260903113853 | 61 | 207 | 1.0 | 4.0 | 0.00 | 0.00 | 0.00 | 89 | 997.9 |
| 20260903113346 | 61 | 234 | 1.0 | 3.0 | 0.00 | 0.00 | 0.00 | 89 | 998.0 |
| 20260903112841 | 61 | 192 | 1.0 | 4.0 | 0.00 | 0.00 | 0.00 | 89 | 998.1 |
| 20260903112335 | 61 | 254 | 2.0 | 6.0 | 0.00 | 0.00 | 0.00 | 89 | 998.1 |
| 20260903111830 | 61 | 247 | 2.0 | 6.0 | 0.00 | 0.00 | 0.00 | 89 | 998.2 |
| 20260903110817 | 61 | 178 | 1.0 | 4.0 | 0.00 | 0.00 | 0.00 | 89 | 998.2 |
| 20260903110310 | 61 | 254 | 1.0 | 3.0 | 0.00 | 0.00 | 0.00 | 89 | 998.3 |
| 20260903105258 | 61 | 238 | 1.0 | 3.0 | 0.00 | 0.00 | 0.00 | 89 | 998.4 |
| 20260903104753 | 61 | 252 | 1.0 | 3.0 | 0.00 | 0.00 | 0.00 | 89 | 998.3 |
| 20260903104247 | 61 | 246 | 1.0 | 4.0 | 0.00 | 0.00 | 0.00 | 89 | 998.4 |
| 20260903103238 | 61 | 224 | 1.0 | 3.0 | 0.00 | 0.00 | 0.00 | 89 | 998.5 |
| 20260903102738 | 61 | 228 | 1.0 | 4.0 | 0.00 | 0.00 | 0.00 | 89 | 998.4 |
| 20260903102239 | 61 | 239 | 2.0 | 4.0 | 0.00 | 0.00 | 0.00 | 89 | 998.5 |
| 20260903101737 | 61 | 221 | 1.0 | 3.0 | 0.00 | 0.00 | 0.00 | 89 | 998.4 |
| 20260903101238 | 60 | 250 | 1.0 | 3.0 | 0.00 | 0.00 | 0.00 | 89 | 998.5 |
| 20260903100739 | 60 | 253 | 1.0 | 3.0 | 0.00 | 0.00 | 0.00 | 89 | 998.5 |
| 20260903100237 | 60 | 252 | 2.0 | 4.0 | 0.00 | 0.00 | 0.00 | 89 | 998.5 |
| 20260903095734 | 60 | 225 | 2.0 | 5.0 | 0.00 | 0.00 | 0.00 | 89 | 998.6 |
| 20260903095234 | 60 | 232 | 2.0 | 5.0 | 0.00 | 0.00 | 0.00 | 89 | 998.7 |
| 20260903094734 | 60 | 261 | 2.0 | 4.0 | 0.00 | 0.00 | 0.00 | 89 | 998.6 |
| 20260903094232 | 60 | 250 | 2.0 | 4.0 | 0.00 | 0.00 | 0.00 | 89 | 998.6 |
| 20260903093732 | 60 | 177 | 2.0 | 4.0 | 0.00 | 0.00 | 0.00 | 89 | 998.6 |
| 20260903093229 | 60 | 247 | 2.0 | 4.0 | 0.00 | 0.00 | 0.00 | 89 | 998.7 |
| 20260903092731 | 60 | 234 | 2.0 | 5.0 | 0.00 | 0.00 | 0.00 | 89 | 998.7 |
| 20260903091730 | 60 | 221 | 1.0 | 3.0 | 0.00 | 0.00 | 0.00 | 89 | 998.8 |
| 20260903091230 | 60 | 221 | 1.0 | 3.0 | 0.00 | 0.00 | 0.00 | 89 | 998.8 |
| 20260903090725 | 60 | 240 | 1.0 | 3.0 | 0.00 | 0.00 | 0.00 | 89 | 998.8 |
| 20260903090218 | 60 | 240 | 0.0 | 3.0 | 0.00 | 0.00 | 0.00 | 89 | 998.9 |
| 20260903085712 | 60 | 238 | 0.0 | 0.0 | 0.00 | 0.00 | 0.00 | 89 | 998.9 |
| 20260903085207 | 60 | 229 | 0.0 | 0.0 | 0.00 | 0.00 | 0.00 | 89 | 998.9 |
| 20260903084701 | 60 | 229 | 0.0 | 0.0 | 0.00 | 0.00 | 0.00 | 89 | 999.0 |
| 20260903084154 | 60 | 204 | 0.0 | 3.0 | 0.00 | 0.00 | 0.00 | 89 | 999.0 |
| 20260903083648 | 60 | 211 | 1.0 | 3.0 | 0.00 | 0.00 | 0.00 | 89 | 999.0 |
| 20260903083142 | 60 | 192 | 1.0 | 4.0 | 0.00 | 0.00 | 0.00 | 89 | 999.0 |
| 20260903082637 | 60 | 188 | 0.0 | 1.0 | 0.00 | 0.00 | 0.00 | 89 | 999.1 |
| 20260903082131 | 60 | 237 | 1.0 | 4.0 | 0.00 | 0.00 | 0.00 | 89 | 999.0 |
| 20260903081118 | 60 | 175 | 0.0 | 2.0 | 0.00 | 0.00 | 0.00 | 88 | 999.0 |
| 20260903080613 | 60 | 175 | 0.0 | 3.0 | 0.00 | 0.00 | 0.00 | 88 | 998.9 |
| 20260903080109 | 60 | 175 | 0.0 | 3.0 | 0.00 | 0.00 | 0.00 | 89 | 999.0 |
| 20260903075610 | 60 | 175 | 1.0 | 3.0 | 0.00 | 0.00 | 0.00 | 88 | 999.0 |
| 20260903075109 | 60 | 175 | 1.0 | 4.0 | 0.00 | 0.00 | 0.00 | 88 | 998.8 |
| 20260903074611 | 60 | 178 | 2.0 | 4.0 | 0.00 | 0.00 | 0.00 | 88 | 998.9 |
| 20260903074110 | 60 | 186 | 2.0 | 5.0 | 0.00 | 0.00 | 0.00 | 88 | 999.0 |
| 20260903073610 | 60 | 176 | 1.0 | 5.0 | 0.00 | 0.00 | 0.00 | 88 | 998.9 |
| 20260903072104 | 60 | 175 | 0.0 | 3.0 | 0.00 | 0.00 | 0.00 | 88 | 999.0 |
| 20260903071603 | 60 | 173 | 0.0 | 3.0 | 0.00 | 0.00 | 0.00 | 88 | 999.0 |
| 20260903070605 | 60 | 282 | 0.0 | 1.0 | 0.00 | 0.00 | 0.00 | 88 | 998.9 |
| 20260903070104 | 60 | 282 | 0.0 | 3.0 | 0.00 | 0.00 | 0.00 | 88 | 999.0 |
| 20260903065605 | 60 | 288 | 1.0 | 3.0 | 0.00 | 0.00 | 0.00 | 87 | 998.9 |
| 20260903065101 | 60 | 294 | 1.0 | 3.0 | 0.00 | 0.00 | 0.00 | 87 | 998.9 |
| 20260903064100 | 60 | 254 | 0.0 | 1.0 | 0.00 | 0.00 | 0.00 | 87 | 998.9 |
| 20260903063101 | 60 | 254 | 0.0 | 0.0 | 0.00 | 0.00 | 0.00 | 87 | 999.1 |
| 20260903062600 | 60 | 254 | 0.0 | 1.0 | 0.00 | 0.00 | 0.00 | 87 | 999.1 |
| 20260903062100 | 60 | 254 | 0.0 | 1.0 | 0.00 | 0.00 | 0.00 | 87 | 999.1 |
| 20260903061600 | 60 | 254 | 0.0 | 2.0 | 0.00 | 0.00 | 0.00 | 87 | 999.2 |
| 20260903061101 | 60 | 254 | 0.0 | 2.0 | 0.00 | 0.00 | 0.00 | 87 | 999.3 |
| 20260903055559 | 60 | 281 | 0.0 | 3.0 | 0.00 | 0.00 | 0.00 | 87 | 999.3 |
| 20260903055100 | 60 | 278 | 0.0 | 3.0 | 0.00 | 0.00 | 0.00 | 87 | 999.4 |
| 20260903054101 | 60 | 281 | 1.0 | 3.0 | 0.00 | 0.00 | 0.00 | 87 | 999.3 |
| 20260903053600 | 60 | 283 | 1.0 | 4.0 | 0.00 | 0.00 | 0.00 | 87 | 999.4 |
| 20260903053101 | 60 | 276 | 1.0 | 6.0 | 0.00 | 0.00 | 0.00 | 87 | 999.4 |
| 20260903052600 | 60 | 265 | 2.0 | 6.0 | 0.00 | 0.00 | 0.00 | 87 | 999.5 |
| 20260903052101 | 60 | 269 | 1.0 | 3.0 | 0.00 | 0.00 | 0.00 | 86 | 999.5 |
| 20260903051559 | 60 | 275 | 1.0 | 3.0 | 0.00 | 0.00 | 0.00 | 87 | 999.6 |
| 20260903051059 | 60 | 264 | 1.0 | 3.0 | 0.00 | 0.00 | 0.00 | 87 | 999.6 |
| 20260903050600 | 60 | 238 | 1.0 | 2.0 | 0.00 | 0.00 | 0.00 | 86 | 999.6 |
| 20260903050101 | 60 | 213 | 1.0 | 3.0 | 0.00 | 0.00 | 0.00 | 86 | 999.6 |
| 20260903045600 | 60 | 259 | 1.0 | 3.0 | 0.00 | 0.00 | 0.00 | 86 | 999.6 |
| 20260903045101 | 60 | 214 | 1.0 | 3.0 | 0.00 | 0.00 | 0.00 | 86 | 999.6 |
| 20260903044557 | 61 | 292 | 1.0 | 3.0 | 0.00 | 0.00 | 0.00 | 86 | 999.5 |
| 20260903044058 | 61 | 213 | 0.0 | 3.0 | 0.00 | 0.00 | 0.00 | 86 | 999.5 |
| 20260903043551 | 61 | 302 | 0.0 | 2.0 | 0.00 | 0.00 | 0.00 | 85 | 999.5 |
| 20260903042550 | 61 | 303 | 1.0 | 6.0 | 0.00 | 0.00 | 0.00 | 86 | 999.5 |
| 20260903042048 | 61 | 228 | 0.0 | 0.0 | 0.00 | 0.00 | 0.00 | 85 | 999.4 |
| 20260903041549 | 61 | 228 | 0.0 | 2.0 | 0.00 | 0.00 | 0.00 | 85 | 999.4 |
| 20260903041044 | 61 | 229 | 1.0 | 3.0 | 0.00 | 0.00 | 0.00 | 85 | 999.3 |
| 20260903040543 | 61 | 229 | 1.0 | 4.0 | 0.00 | 0.00 | 0.00 | 85 | 999.3 |
| 20260903040039 | 61 | 231 | 1.0 | 4.0 | 0.00 | 0.00 | 0.00 | 85 | 999.3 |
| 20260903035539 | 62 | 208 | 1.0 | 4.0 | 0.00 | 0.00 | 0.00 | 85 | 999.3 |
| 20260903034540 | 62 | 229 | 1.0 | 5.0 | 0.00 | 0.00 | 0.00 | 84 | 999.1 |
| 20260903034041 | 62 | 199 | 1.0 | 5.0 | 0.00 | 0.00 | 0.00 | 84 | 999.1 |
| 20260903033538 | 62 | 234 | 2.0 | 5.0 | 0.00 | 0.00 | 0.00 | 83 | 999.1 |
| 20260903033037 | 62 | 202 | 2.0 | 7.0 | 0.00 | 0.00 | 0.00 | 83 | 998.9 |
| 20260903032536 | 62 | 218 | 2.0 | 7.0 | 0.00 | 0.00 | 0.00 | 82 | 998.9 |
| 20260903031536 | 62 | 187 | 1.0 | 4.0 | 0.00 | 0.00 | 0.00 | 82 | 998.7 |
| 20260903031036 | 62 | 234 | 1.0 | 4.0 | 0.00 | 0.00 | 0.00 | 82 | 998.7 |
| 20260903030036 | 62 | 147 | 2.0 | 3.0 | 0.00 | 0.00 | 0.00 | 82 | 998.6 |
| 20260903025530 | 63 | 234 | 2.0 | 5.0 | 0.00 | 0.00 | 0.00 | 81 | 998.6 |
| 20260903025024 | 63 | 184 | 2.0 | 5.0 | 0.00 | 0.00 | 0.00 | 81 | 998.6 |
| 20260903024518 | 63 | 169 | 2.0 | 5.0 | 0.00 | 0.00 | 0.00 | 81 | 998.6 |
| 20260903024011 | 63 | 188 | 2.0 | 4.0 | 0.00 | 0.00 | 0.00 | 80 | 998.6 |
| 20260903023506 | 64 | 255 | 1.0 | 3.0 | 0.00 | 0.00 | 0.00 | 79 | 998.7 |
| 20260903022959 | 64 | 223 | 1.0 | 3.0 | 0.00 | 0.00 | 0.00 | 79 | 998.7 |
| 20260903022454 | 64 | 208 | 1.0 | 3.0 | 0.00 | 0.00 | 0.00 | 79 | 998.8 |
| 20260903021948 | 64 | 203 | 2.0 | 5.0 | 0.00 | 0.00 | 0.00 | 79 | 998.8 |
| 20260903021442 | 64 | 247 | 3.0 | 6.0 | 0.00 | 0.00 | 0.00 | 78 | 998.8 |
| 20260903020936 | 64 | 167 | 3.0 | 6.0 | 0.00 | 0.00 | 0.00 | 77 | 998.9 |
| 20260903020429 | 65 | 197 | 3.0 | 6.0 | 0.00 | 0.00 | 0.00 | 77 | 998.9 |
| 20260903015923 | 65 | 173 | 2.0 | 5.0 | 0.00 | 0.00 | 0.00 | 77 | 998.9 |
| 20260903015418 | 65 | 172 | 2.0 | 7.0 | 0.00 | 0.00 | 0.00 | 77 | 999.0 |
| 20260903014911 | 66 | 223 | 3.0 | 7.0 | 0.00 | 0.00 | 0.00 | 77 | 999.1 |
| 20260903014405 | 66 | 221 | 3.0 | 6.0 | 0.00 | 0.00 | 0.00 | 77 | 999.0 |
| 20260903013859 | 66 | 275 | 2.0 | 6.0 | 0.00 | 0.00 | 0.00 | 77 | 999.1 |
| 20260903012848 | 66 | 200 | 3.0 | 6.0 | 0.00 | 0.00 | 0.00 | 76 | 999.0 |
| 20260903011836 | 66 | 187 | 3.0 | 7.0 | 0.00 | 0.00 | 0.00 | 77 | 999.1 |
| 20260903011330 | 66 | 250 | 3.0 | 7.0 | 0.00 | 0.00 | 0.00 | 76 | 999.1 |
| 20260903010318 | 67 | 213 | 3.0 | 7.0 | 0.00 | 0.00 | 0.00 | 75 | 999.1 |
| 20260903005812 | 67 | 226 | 4.0 | 8.0 | 0.00 | 0.00 | 0.00 | 75 | 999.2 |
| 20260903005306 | 67 | 236 | 5.0 | 10.0 | 0.00 | 0.00 | 0.00 | 74 | 999.1 |
| 20260903004800 | 67 | 180 | 4.0 | 10.0 | 0.00 | 0.00 | 0.00 | 74 | 999.1 |
| 20260903004254 | 67 | 217 | 3.0 | 5.0 | 0.00 | 0.00 | 0.00 | 74 | 999.1 |
| 20260903003748 | 67 | 239 | 4.0 | 7.0 | 0.00 | 0.00 | 0.00 | 74 | 999.1 |
| 20260903003243 | 68 | 248 | 3.0 | 7.0 | 0.00 | 0.00 | 0.00 | 73 | 999.2 |
| 20260903002735 | 68 | 236 | 4.0 | 6.0 | 0.00 | 0.00 | 0.00 | 73 | 999.2 |
| 20260903002229 | 68 | 214 | 3.0 | 7.0 | 0.00 | 0.00 | 0.00 | 73 | 999.3 |
| 20260903001724 | 69 | 234 | 3.0 | 7.0 | 0.00 | 0.00 | 0.00 | 74 | 999.3 |
| 20260903001218 | 68 | 235 | 3.0 | 7.0 | 0.00 | 0.00 | 0.00 | 75 | 999.4 |
| 20260903000712 | 68 | 273 | 3.0 | 7.0 | 0.00 | 0.00 | 0.00 | 75 | 999.3 |
| 20260903000206 | 68 | 203 | 4.0 | 8.0 | 0.00 | 0.00 | 0.00 | 75 | 999.4 |
| 20260902235700 | 68 | 163 | 4.0 | 8.0 | 0.00 | 0.00 | 0.00 | 75 | 999.3 |
| 20260902235154 | 68 | 219 | 4.0 | 8.0 | 0.00 | 0.00 | 0.00 | 74 | 999.3 |
| 20260902234648 | 68 | 196 | 3.0 | 7.0 | 0.00 | 0.00 | 0.00 | 73 | 999.4 |
| 20260902234141 | 69 | 179 | 4.0 | 10.0 | 0.00 | 0.00 | 0.00 | 72 | 999.4 |
| 20260902233635 | 69 | 267 | 3.0 | 10.0 | 0.00 | 0.00 | 0.00 | 71 | 999.5 |
| 20260902233129 | 70 | 232 | 4.0 | 10.0 | 0.00 | 0.00 | 0.00 | 71 | 999.5 |
| 20260902232623 | 69 | 203 | 4.0 | 10.0 | 0.00 | 0.00 | 0.00 | 71 | 999.4 |
| 20260902232117 | 69 | 234 | 5.0 | 11.0 | 0.00 | 0.00 | 0.00 | 69 | 999.4 |
| 20260902231612 | 69 | 283 | 5.0 | 11.0 | 0.00 | 0.00 | 0.00 | 69 | 999.5 |
| 20260902231105 | 69 | 281 | 5.0 | 9.0 | 0.00 | 0.00 | 0.00 | 69 | 999.5 |
| 20260902230600 | 69 | 190 | 5.0 | 9.0 | 0.00 | 0.00 | 0.00 | 68 | 999.7 |
| 20260902230054 | 69 | 241 | 5.0 | 12.0 | 0.00 | 0.00 | 0.00 | 68 | 999.7 |
| 20260902225547 | 70 | 215 | 5.0 | 12.0 | 0.00 | 0.00 | 0.00 | 67 | 999.7 |
| 20260902225042 | 70 | 242 | 5.0 | 10.0 | 0.00 | 0.00 | 0.00 | 66 | 999.7 |
| 20260902224536 | 70 | 208 | 5.0 | 12.0 | 0.00 | 0.00 | 0.00 | 66 | 999.9 |
| 20260902224030 | 70 | 246 | 5.0 | 12.0 | 0.00 | 0.00 | 0.00 | 66 | 999.8 |
| 20260902223524 | 71 | 204 | 4.0 | 9.0 | 0.00 | 0.00 | 0.00 | 65 | 999.8 |
| 20260902223018 | 71 | 207 | 4.0 | 9.0 | 0.00 | 0.00 | 0.00 | 65 | 1000.0 |
| 20260902222006 | 71 | 196 | 4.0 | 12.0 | 0.00 | 0.00 | 0.00 | 66 | 1000.0 |
| 20260902221500 | 70 | 238 | 4.0 | 12.0 | 0.00 | 0.00 | 0.00 | 68 | 999.9 |
| 20260902220953 | 70 | 275 | 5.0 | 11.0 | 0.00 | 0.00 | 0.00 | 68 | 1000.0 |
| 20260902220447 | 70 | 282 | 5.0 | 11.0 | 0.00 | 0.00 | 0.00 | 69 | 1000.1 |